Content
SEND FEEDBACK

Daily
Averages
Monthly
Summary
United States of America

BERKELEY, MISSOURI


Home > North America > United States > Missouri
Elevation: 564 feet     Latitude: 38 45N     Longitude: 090 22W

WEATHER
 
SELECT A DAY
Number of Records: 206,556;   Date Range: 1/1/95 - 10/23/14
 
SHARE

PRINT THIS DATA

[ ← Previous Day ]
WEATHER ALMANAC - JANUARY 10, 2013
[ Next Day → ]
[ °C ]   °F
Weather ElementAverageHighLow
Temperature48.4 °F59 °F (11:51 pm)42.8 °F (8:38 am)
Dewpoint43.6 °F55.4 °F (10:56 pm)28.9 °F (2:51 am)
Humidity84.4 %100 % (9:18 pm)51 % (4:51 am)
Barometer30.05 in30.43 in (1:51 am)29.79 in (10:34 pm)
Wind Speed11 mph16.1 mph (6:51 am)
Weather ElementAverage
Visibility3.4 mi
Wind DirectionESE (113.4 °)

Weather ElementTotal
Precipitation1.17 in
Heating Degree Days14.1 (Base 65)
Growing Degree Days0.9 (Base 50)
Averaged from 47 records on January 10, 2013
WEATHER CONDITIONS BREAKOUT
WIND DIRECTION BREAKOUT
WEATHER BY HOUR - JANUARY 10, 2013
[ °C ]   °F
Local TimeTemperatureDewpointHumidityBarometerVisibilityWind DirectionWind SpeedGust SpeedPrecipitationEventsConditions
1:51 AM44.1 °F30.0 °F58 %30.43 in10.0 miEast (100°)9.2 mphOvercast
2:51 AM45.0 °F28.9 °F53 %30.42 in10.0 miEast (100°)10.4 mphOvercast
3:51 AM45.0 °F28.9 °F53 %30.39 in10.0 miEast (90°)10.4 mphOvercast
4:51 AM46.0 °F28.9 °F51 %30.35 in10.0 miEast (80°)10.4 mphOvercast
5:51 AM44.6 °F30.2 °F57 %30.33 in10.0 miEast (100°)9.2 mphRainLight Rain
6:51 AM45.0 °F30.9 °F58 %30.31 in10.0 miEast (100°)16.1 mph0.00 inRainLight Rain
7:51 AM43.0 °F34.0 °F71 %30.30 in7.0 miEast (100°)12.7 mph0.00 inRainLight Rain
8:38 AM42.8 °F35.6 °F76 %30.27 in5.0 miEast (100°)13.8 mph0.02 inRainLight Rain
8:51 AM43.0 °F36.0 °F76 %30.28 in5.0 miEast (100°)12.7 mph0.03 inRainLight Rain
9:24 AM44.6 °F35.6 °F71 %30.25 in4.0 miESE (110°)15.0 mph0.01 inRainLight Rain
9:47 AM44.6 °F37.4 °F76 %30.24 in2.0 miESE (110°)13.8 mphRainLight Rain
9:51 AM44.1 °F37.9 °F79 %30.26 in2.0 miESE (110°)16.1 mph0.03 inRainLight Rain
9:55 AM42.8 °F37.4 °F81 %30.23 in2.0 miESE (110°)15.0 mph0.00 inRainLight Rain
10:14 AM42.8 °F39.2 °F87 %30.22 in1.5 miESE (110°)16.1 mph0.04 inRainRain
10:29 AM42.8 °F39.2 °F87 %30.22 in3.0 miESE (120°)12.7 mph0.06 inRainLight Rain
10:51 AM43.0 °F39.9 °F89 %30.22 in3.0 miESE (110°)12.7 mph0.06 inRainLight Rain
10:54 AM42.8 °F39.2 °F87 %30.20 in3.0 miESE (110°)13.8 mph0.00 inRainLight Rain
11:20 AM44.6 °F39.2 °F81 %30.17 in2.5 miESE (110°)13.8 mphRainLight Rain
11:51 AM44.1 °F41.0 °F89 %30.15 in1.5 miESE (110°)16.1 mph0.00 inRainLight Rain
12:16 PM44.6 °F42.8 °F93 %30.10 in0.8 miESE (110°)13.8 mph0.00 inRainLight Rain
12:51 PM46.0 °F43.0 °F89 %30.12 in0.8 miSE (130°)11.5 mph0.00 inRainLight Rain
1:51 PM46.9 °F45.0 °F93 %30.06 in0.8 miESE (120°)15.0 mph0.00 inRainLight Rain
2:43 PM48.2 °F44.6 °F87 %30.02 in0.5 miESE (110°)11.5 mph0.00 inFogLight Drizzle
3:51 PM48.0 °F46.0 °F93 %29.99 in0.5 miEast (90°)8.1 mph0.00 inFog-RainLight Rain
4:24 PM48.2 °F46.4 °F93 %29.96 in0.8 miENE (70°)6.9 mph0.00 inRainLight Rain
4:51 PM48.9 °F46.9 °F93 %29.97 in0.8 miESE (110°)6.9 mph0.00 inRainLight Rain
5:00 PM48.2 °F46.4 °F93 %29.95 in1.0 miEast (100°)8.1 mph0.01 inRainLight Rain
5:20 PM50.0 °F48.2 °F94 %29.95 in2.0 miEast (100°)9.2 mph0.02 inRainLight Rain
5:51 PM50.0 °F48.0 °F93 %29.95 in2.0 miEast (100°)10.4 mph0.02 inRainLight Rain
6:51 PM50.0 °F48.0 °F93 %29.94 in2.5 miESE (110°)9.2 mph0.01 inRainLight Rain
7:09 PM51.8 °F48.2 °F88 %29.93 in4.0 miESE (120°)10.4 mph0.00 inOvercast
7:26 PM51.8 °F48.2 °F88 %29.92 in2.5 miESE (120°)11.5 mph0.00 inRainLight Rain
7:51 PM51.1 °F48.9 °F92 %29.90 in2.5 miESE (120°)10.4 mph0.01 inRainLight Rain
8:09 PM51.8 °F48.2 °F88 %29.89 in1.2 miESE (110°)10.4 mph0.01 inRainLight Rain
8:24 PM51.8 °F50.0 °F94 %29.88 in2.5 miESE (110°)8.1 mph0.02 inRainLight Rain
8:49 PM51.8 °F50.0 °F94 %29.85 in0.8 miESE (110°)6.9 mph0.06 inRainLight Rain
8:51 PM52.0 °F50.0 °F93 %29.86 in0.8 miESE (110°)8.1 mph0.06 inRainLight Rain
9:03 PM51.8 °F50.0 °F94 %29.84 in0.8 miESE (110°)8.1 mph0.00 inRainLight Rain
9:18 PM51.8 °F51.8 °F100 %29.83 in0.2 miESE (120°)6.9 mph0.01 inFog-RainLight Rain
9:31 PM53.6 °F51.8 °F94 %29.82 in0.8 miESE (120°)9.2 mph0.05 inRainLight Rain
9:43 PM53.6 °F51.8 °F94 %29.81 in1.0 miESE (110°)9.2 mph0.11 inRainHeavy Rain
9:51 PM53.1 °F51.1 °F93 %29.82 in3.0 miSE (130°)6.9 mph0.17 inRainLight Rain
10:34 PM53.6 °F51.8 °F94 %29.79 in1.2 miESE (120°)9.2 mph0.04 inRainHeavy Rain
10:51 PM57.9 °F55.0 °F90 %29.80 in2.0 miSSE (150°)10.4 mph0.14 inRainRain
10:56 PM57.2 °F55.4 °F94 %29.80 in3.0 miSSE (160°)9.2 mphRainLight Rain
11:25 PM57.2 °F55.4 °F94 %29.79 in10.0 miSSE (160°)8.1 mph0.09 inRainLight Rain
11:51 PM59.0 °F55.0 °F87 %29.79 in10.0 miSW (220°)12.7 mph0.09 inMostly Cloudy
Hourly data recorded from KSTL, located miles away from Berkeley, Missouri







STORIES FROM OUR PARTNERS